Time,TemperatureF,DewpointF,PressureIn,WindDirection,WindDirectionDegrees,WindSpeedMPH,WindSpeedGustMPH,Humidity,HourlyPrecipIn,Conditions,Clouds,dailyrainin,SoftwareType,DateUTC
2013-09-21 00:00:00,61.0,53.8,29.94,North,0,0.0,0.0,77,0.00,,,0.00,WUHU21623XXSP,2013-09-21 07:00:00,
2013-09-21 00:05:00,61.0,53.8,29.94,North,0,0.0,0.0,77,0.00,,,0.00,WUHU21623XXSP,2013-09-21 07:05:00,
2013-09-21 00:10:00,60.8,53.6,29.94,North,0,0.0,0.0,77,0.00,,,0.00,WUHU21623XXSP,2013-09-21 07:10:00,
2013-09-21 00:15:00,60.6,53.4,29.94,North,0,0.0,0.0,77,0.00,,,0.00,WUHU21623XXSP,2013-09-21 07:15:00,
2013-09-21 00:20:00,60.6,53.4,29.94,North,0,0.0,0.0,77,0.00,,,0.00,WUHU21623XXSP,2013-09-21 07:20:00,
2013-09-21 00:25:00,60.6,53.4,29.94,North,0,0.0,0.0,77,0.00,,,0.00,WUHU21623XXSP,2013-09-21 07:25:00,
2013-09-21 00:30:00,60.6,53.4,29.94,North,0,0.0,0.0,77,0.00,,,0.00,WUHU21623XXSP,2013-09-21 07:30:00,
2013-09-21 00:35:00,60.6,53.4,29.94,North,0,0.0,0.0,77,0.00,,,0.00,WUHU21623XXSP,2013-09-21 07:35:00,
2013-09-21 00:40:00,60.6,53.8,29.94,North,0,0.0,0.0,78,0.00,,,0.00,WUHU21623XXSP,2013-09-21 07:40:00,
2013-09-21 00:45:00,60.4,53.6,29.94,North,0,0.0,0.0,78,0.00,,,0.00,WUHU21623XXSP,2013-09-21 07:45:00,
2013-09-21 00:50:00,60.4,53.6,29.94,North,0,0.0,0.0,78,0.00,,,0.00,WUHU21623XXSP,2013-09-21 07:50:00,
2013-09-21 00:55:00,60.4,53.6,29.94,North,0,0.0,0.0,78,0.00,,,0.00,WUHU21623XXSP,2013-09-21 07:55:00,
2013-09-21 01:00:00,60.4,53.6,29.94,North,0,0.0,0.0,78,0.00,,,0.00,WUHU21623XXSP,2013-09-21 08:00:00,
2013-09-21 01:05:00,60.4,53.6,29.94,North,0,0.0,0.0,78,0.00,,,0.00,WUHU21623XXSP,2013-09-21 08:05:00,
2013-09-21 01:10:00,60.4,53.6,29.95,North,0,0.0,0.0,78,0.00,,,0.00,WUHU21623XXSP,2013-09-21 08:10:00,
2013-09-21 01:15:00,60.3,53.4,29.94,North,0,0.0,0.0,78,0.00,,,0.00,WUHU21623XXSP,2013-09-21 08:15:00,
2013-09-21 01:20:00,60.3,53.4,29.95,North,0,0.0,0.0,78,0.00,,,0.00,WUHU21623XXSP,2013-09-21 08:20:00,
2013-09-21 01:25:00,60.1,53.2,29.95,North,0,0.0,0.0,78,0.00,,,0.00,WUHU21623XXSP,2013-09-21 08:25:00,
2013-09-21 01:30:00,60.1,53.2,29.94,North,0,0.0,0.0,78,0.00,,,0.00,WUHU21623XXSP,2013-09-21 08:30:00,
2013-09-21 01:35:00,60.1,53.2,29.95,North,0,0.0,0.0,78,0.00,,,0.00,WUHU21623XXSP,2013-09-21 08:35:00,
2013-09-21 01:40:00,60.1,53.2,29.95,North,0,0.0,0.0,78,0.00,,,0.00,WUHU21623XXSP,2013-09-21 08:40:00,
2013-09-21 01:45:00,60.1,53.2,29.95,North,0,0.0,0.0,78,0.00,,,0.00,WUHU21623XXSP,2013-09-21 08:45:00,
2013-09-21 01:50:00,60.1,53.2,29.95,North,0,0.0,0.0,78,0.00,,,0.00,WUHU21623XXSP,2013-09-21 08:50:00,
2013-09-21 01:55:00,60.1,53.2,29.94,North,0,0.0,0.0,78,0.00,,,0.00,WUHU21623XXSP,2013-09-21 08:55:00,
2013-09-21 02:00:00,60.1,53.2,29.94,North,0,0.0,0.0,78,0.00,,,0.00,WUHU21623XXSP,2013-09-21 09:00:00,
2013-09-21 02:05:00,60.1,53.6,29.94,North,0,0.0,0.0,79,0.00,,,0.00,WUHU21623XXSP,2013-09-21 09:05:00,
2013-09-21 02:10:00,60.1,53.6,29.94,North,0,0.0,0.0,79,0.00,,,0.00,WUHU21623XXSP,2013-09-21 09:10:00,
2013-09-21 02:15:00,60.1,53.6,29.94,North,0,0.0,0.0,79,0.00,,,0.00,WUHU21623XXSP,2013-09-21 09:15:00,
2013-09-21 02:20:00,60.1,53.6,29.94,North,0,0.0,0.0,79,0.00,,,0.00,WUHU21623XXSP,2013-09-21 09:20:00,
2013-09-21 02:25:00,60.1,53.6,29.94,North,0,0.0,0.0,79,0.00,,,0.00,WUHU21623XXSP,2013-09-21 09:25:00,
2013-09-21 02:30:00,60.1,53.6,29.94,North,0,0.0,0.0,79,0.00,,,0.00,WUHU21623XXSP,2013-09-21 09:30:00,
2013-09-21 02:35:00,59.9,53.4,29.94,North,0,0.0,0.0,79,0.00,,,0.00,WUHU21623XXSP,2013-09-21 09:35:00,
2013-09-21 02:40:00,59.9,53.4,29.94,North,0,0.0,0.0,79,0.00,,,0.00,WUHU21623XXSP,2013-09-21 09:40:00,
2013-09-21 02:45:00,59.9,53.4,29.94,North,0,0.0,0.0,79,0.00,,,0.00,WUHU21623XXSP,2013-09-21 09:45:00,
2013-09-21 02:50:00,59.9,53.4,29.94,North,0,0.0,0.0,79,0.00,,,0.00,WUHU21623XXSP,2013-09-21 09:50:00,
2013-09-21 02:55:00,59.9,53.4,29.94,North,0,0.0,0.0,79,0.00,,,0.00,WUHU21623XXSP,2013-09-21 09:55:00,
2013-09-21 03:00:00,59.9,53.4,29.94,North,0,0.0,0.0,79,0.00,,,0.00,WUHU21623XXSP,2013-09-21 10:00:00,
2013-09-21 03:05:00,60.1,53.6,29.94,North,0,0.0,0.0,79,0.00,,,0.00,WUHU21623XXSP,2013-09-21 10:05:00,
2013-09-21 03:10:00,60.1,53.6,29.94,North,0,0.0,0.0,79,0.00,,,0.00,WUHU21623XXSP,2013-09-21 10:10:00,
2013-09-21 03:15:00,60.1,53.6,29.93,North,0,0.0,0.0,79,0.00,,,0.00,WUHU21623XXSP,2013-09-21 10:15:00,
2013-09-21 03:20:00,60.1,53.6,29.94,North,0,0.0,0.0,79,0.00,,,0.00,WUHU21623XXSP,2013-09-21 10:20:00,
2013-09-21 03:25:00,60.1,53.6,29.93,North,0,0.0,0.0,79,0.00,,,0.00,WUHU21623XXSP,2013-09-21 10:25:00,
2013-09-21 03:30:00,59.9,53.4,29.93,North,0,0.0,0.0,79,0.00,,,0.00,WUHU21623XXSP,2013-09-21 10:30:00,
2013-09-21 03:35:00,59.9,53.4,29.93,North,0,0.0,0.0,79,0.00,,,0.00,WUHU21623XXSP,2013-09-21 10:35:00,
2013-09-21 03:40:00,59.9,53.4,29.93,North,0,0.0,0.0,79,0.00,,,0.00,WUHU21623XXSP,2013-09-21 10:40:00,
2013-09-21 03:45:00,59.7,53.2,29.93,North,0,0.0,0.0,79,0.00,,,0.00,WUHU21623XXSP,2013-09-21 10:45:00,
2013-09-21 03:50:00,59.7,53.2,29.93,North,0,0.0,0.0,79,0.00,,,0.00,WUHU21623XXSP,2013-09-21 10:50:00,
2013-09-21 03:55:00,59.7,53.2,29.93,North,0,0.0,0.0,79,0.00,,,0.00,WUHU21623XXSP,2013-09-21 10:55:00,
2013-09-21 04:00:00,59.5,53.1,29.93,North,0,0.0,0.0,79,0.00,,,0.00,WUHU21623XXSP,2013-09-21 11:00:00,
2013-09-21 04:05:00,59.2,52.7,29.93,North,0,0.0,0.0,79,0.00,,,0.00,WUHU21623XXSP,2013-09-21 11:05:00,
2013-09-21 04:10:00,59.2,52.7,29.93,North,0,0.0,0.0,78,0.00,,,0.00,WUHU21623XXSP,2013-09-21 11:10:00,
2013-09-21 04:15:00,59.0,52.2,29.93,North,0,0.0,0.0,78,0.00,,,0.00,WUHU21623XXSP,2013-09-21 11:15:00,
2013-09-21 04:20:00,59.0,52.2,29.93,North,0,0.0,0.0,78,0.00,,,0.00,WUHU21623XXSP,2013-09-21 11:20:00,
2013-09-21 04:25:00,59.0,52.2,29.93,North,0,0.0,0.0,78,0.00,,,0.00,WUHU21623XXSP,2013-09-21 11:25:00,
2013-09-21 04:30:00,58.8,51.6,29.93,North,0,0.0,0.0,77,0.00,,,0.00,WUHU21623XXSP,2013-09-21 11:30:00,
2013-09-21 04:35:00,58.8,51.6,29.93,North,0,0.0,0.0,77,0.00,,,0.00,WUHU21623XXSP,2013-09-21 11:35:00,
2013-09-21 04:40:00,58.8,51.6,29.93,North,0,0.0,0.0,77,0.00,,,0.00,WUHU21623XXSP,2013-09-21 11:40:00,
2013-09-21 04:45:00,58.8,51.3,29.93,North,0,0.0,0.0,76,0.00,,,0.00,WUHU21623XXSP,2013-09-21 11:45:00,
2013-09-21 04:50:00,58.8,51.3,29.93,North,0,0.0,0.0,76,0.00,,,0.00,WUHU21623XXSP,2013-09-21 11:50:00,
2013-09-21 04:55:00,58.8,51.3,29.93,North,0,0.0,0.0,76,0.00,,,0.00,WUHU21623XXSP,2013-09-21 11:55:00,
2013-09-21 05:00:00,58.8,51.3,29.94,North,0,0.0,0.0,75,0.00,,,0.00,WUHU21623XXSP,2013-09-21 12:00:00,
2013-09-21 05:05:00,58.5,50.5,29.93,North,0,0.0,0.0,75,0.00,,,0.00,WUHU21623XXSP,2013-09-21 12:05:00,
2013-09-21 05:10:00,58.3,50.4,29.93,North,0,0.0,0.0,75,0.00,,,0.00,WUHU21623XXSP,2013-09-21 12:10:00,
2013-09-21 05:15:00,57.7,49.5,29.94,North,0,0.0,0.0,74,0.00,,,0.00,WUHU21623XXSP,2013-09-21 12:15:00,
2013-09-21 05:20:00,57.6,49.3,29.94,North,0,0.0,0.0,74,0.00,,,0.00,WUHU21623XXSP,2013-09-21 12:20:00,
2013-09-21 05:25:00,57.2,48.9,29.94,North,0,0.0,0.0,74,0.00,,,0.00,WUHU21623XXSP,2013-09-21 12:25:00,
2013-09-21 05:30:00,56.8,48.6,29.94,North,0,0.0,0.0,74,0.00,,,0.00,WUHU21623XXSP,2013-09-21 12:30:00,
2013-09-21 05:35:00,56.7,48.4,29.94,North,0,0.0,0.0,74,0.00,,,0.00,WUHU21623XXSP,2013-09-21 12:35:00,
2013-09-21 05:40:00,56.5,48.2,29.94,North,0,0.0,0.0,74,0.00,,,0.00,WUHU21623XXSP,2013-09-21 12:40:00,
2013-09-21 05:45:00,56.1,48.1,29.94,North,0,0.0,0.0,74,0.00,,,0.00,WUHU21623XXSP,2013-09-21 12:45:00,
2013-09-21 05:50:00,55.9,47.7,29.94,North,0,0.0,0.0,74,0.00,,,0.00,WUHU21623XXSP,2013-09-21 12:50:00,
2013-09-21 05:55:00,55.6,47.4,29.94,North,0,0.0,0.0,74,0.00,,,0.00,WUHU21623XXSP,2013-09-21 12:55:00,
2013-09-21 06:00:00,55.4,47.2,29.94,North,0,0.0,0.0,74,0.00,,,0.00,WUHU21623XXSP,2013-09-21 13:00:00,
2013-09-21 06:05:00,55.2,47.4,29.94,North,0,0.0,0.0,75,0.00,,,0.00,WUHU21623XXSP,2013-09-21 13:05:00,
2013-09-21 06:10:00,55.0,47.2,29.94,North,0,0.0,0.0,75,0.00,,,0.00,WUHU21623XXSP,2013-09-21 13:10:00,
2013-09-21 06:15:00,54.7,46.9,29.94,North,0,0.0,0.0,75,0.00,,,0.00,WUHU21623XXSP,2013-09-21 13:15:00,
2013-09-21 06:20:00,54.3,46.5,29.94,North,0,0.0,0.0,75,0.00,,,0.00,WUHU21623XXSP,2013-09-21 13:20:00,
2013-09-21 06:25:00,54.1,46.4,29.94,North,0,0.0,0.0,75,0.00,,,0.00,WUHU21623XXSP,2013-09-21 13:25:00,
2013-09-21 06:30:00,53.4,45.7,29.94,North,0,0.0,0.0,75,0.00,,,0.00,WUHU21623XXSP,2013-09-21 13:30:00,
2013-09-21 06:35:00,53.2,45.5,29.94,North,0,0.0,0.0,75,0.00,,,0.00,WUHU21623XXSP,2013-09-21 13:35:00,
2013-09-21 06:40:00,52.9,45.5,29.94,North,0,0.0,0.0,76,0.00,,,0.00,WUHU21623XXSP,2013-09-21 13:40:00,
2013-09-21 06:45:00,52.5,44.8,29.94,North,0,0.0,0.0,75,0.00,,,0.00,WUHU21623XXSP,2013-09-21 13:45:00,
2013-09-21 06:50:00,52.3,44.7,29.94,North,0,0.0,0.0,76,0.00,,,0.00,WUHU21623XXSP,2013-09-21 13:50:00,
2013-09-21 06:55:00,52.3,45.0,29.94,North,0,0.0,0.0,76,0.00,,,0.00,WUHU21623XXSP,2013-09-21 13:55:00,
2013-09-21 07:00:00,52.5,45.0,29.94,North,0,0.0,0.0,76,0.00,,,0.00,WUHU21623XXSP,2013-09-21 14:00:00,
2013-09-21 07:05:00,52.7,45.4,29.95,North,0,0.0,0.0,76,0.00,,,0.00,WUHU21623XXSP,2013-09-21 14:05:00,
2013-09-21 07:10:00,52.9,45.5,29.94,North,0,0.0,0.0,76,0.00,,,0.00,WUHU21623XXSP,2013-09-21 14:10:00,
2013-09-21 07:15:00,53.4,46.0,29.94,North,0,0.0,0.0,76,0.00,,,0.00,WUHU21623XXSP,2013-09-21 14:15:00,
2013-09-21 07:20:00,53.8,46.4,29.94,North,0,0.0,0.0,76,0.00,,,0.00,WUHU21623XXSP,2013-09-21 14:20:00,
2013-09-21 07:25:00,54.0,46.7,29.94,North,0,0.0,0.0,77,0.00,,,0.00,WUHU21623XXSP,2013-09-21 14:25:00,
2013-09-21 07:30:00,54.0,46.9,29.94,North,0,0.0,0.0,77,0.00,,,0.00,WUHU21623XXSP,2013-09-21 14:30:00,
2013-09-21 07:35:00,54.0,46.9,29.94,North,0,0.0,0.0,77,0.00,,,0.00,WUHU21623XXSP,2013-09-21 14:35:00,
2013-09-21 07:40:00,54.0,46.9,29.94,North,0,0.0,0.0,77,0.00,,,0.00,WUHU21623XXSP,2013-09-21 14:40:00,
2013-09-21 07:45:00,54.1,47.1,29.94,North,0,0.0,0.0,77,0.00,,,0.00,WUHU21623XXSP,2013-09-21 14:45:00,
2013-09-21 07:50:00,54.3,47.2,29.94,North,0,0.0,0.0,77,0.00,,,0.00,WUHU21623XXSP,2013-09-21 14:50:00,
2013-09-21 07:55:00,54.3,47.2,29.94,North,0,0.0,0.0,77,0.00,,,0.00,WUHU21623XXSP,2013-09-21 14:55:00,
2013-09-21 08:00:00,55.0,47.9,29.94,North,0,0.0,0.0,77,0.00,,,0.00,WUHU21623XXSP,2013-09-21 15:00:00,
2013-09-21 08:05:00,55.2,48.1,29.94,North,0,0.0,0.0,77,0.00,,,0.00,WUHU21623XXSP,2013-09-21 15:05:00,
2013-09-21 08:10:00,55.6,48.4,29.94,North,0,0.0,0.0,77,0.00,,,0.00,WUHU21623XXSP,2013-09-21 15:10:00,
2013-09-21 08:15:00,56.3,49.5,29.94,North,0,0.0,0.0,78,0.00,,,0.00,WUHU21623XXSP,2013-09-21 15:15:00,
2013-09-21 08:20:00,56.8,49.6,29.94,North,0,0.0,0.0,78,0.00,,,0.00,WUHU21623XXSP,2013-09-21 15:20:00,
2013-09-21 08:25:00,57.2,50.0,29.94,North,0,0.0,0.0,77,0.00,,,0.00,WUHU21623XXSP,2013-09-21 15:25:00,
2013-09-21 08:30:00,58.1,50.5,29.95,North,0,0.0,0.0,76,0.00,,,0.00,WUHU21623XXSP,2013-09-21 15:30:00,
2013-09-21 08:35:00,58.8,50.5,29.94,North,0,0.0,0.0,75,0.00,,,0.00,WUHU21623XXSP,2013-09-21 15:35:00,
2013-09-21 08:40:00,59.0,50.7,29.94,North,0,0.0,0.0,74,0.00,,,0.00,WUHU21623XXSP,2013-09-21 15:40:00,
2013-09-21 08:45:00,59.0,50.7,29.95,North,0,0.0,0.0,74,0.00,,,0.00,WUHU21623XXSP,2013-09-21 15:45:00,
2013-09-21 08:50:00,59.0,50.7,29.95,North,0,0.0,0.0,74,0.00,,,0.00,WUHU21623XXSP,2013-09-21 15:50:00,
2013-09-21 08:55:00,59.0,50.7,29.95,North,0,0.0,0.0,74,0.00,,,0.00,WUHU21623XXSP,2013-09-21 15:55:00,
2013-09-21 09:00:00,59.0,49.6,29.94,North,0,0.0,0.0,71,0.00,,,0.00,WUHU21623XXSP,2013-09-21 16:00:00,
2013-09-21 09:05:00,61.0,51.2,29.94,North,0,0.0,0.0,70,0.00,,,0.00,WUHU21623XXSP,2013-09-21 16:05:00,
2013-09-21 09:10:00,61.3,51.2,29.94,North,0,0.0,0.0,69,0.00,,,0.00,WUHU21623XXSP,2013-09-21 16:10:00,
2013-09-21 09:15:00,61.9,51.2,29.94,North,0,0.0,0.0,68,0.00,,,0.00,WUHU21623XXSP,2013-09-21 16:15:00,
2013-09-21 09:20:00,62.1,51.2,29.95,North,0,0.0,0.0,68,0.00,,,0.00,WUHU21623XXSP,2013-09-21 16:20:00,
2013-09-21 09:25:00,62.4,51.7,29.95,North,0,0.0,0.0,68,0.00,,,0.00,WUHU21623XXSP,2013-09-21 16:25:00,
2013-09-21 09:30:00,62.4,50.9,29.95,North,0,0.0,0.0,66,0.00,,,0.00,WUHU21623XXSP,2013-09-21 16:30:00,
2013-09-21 09:35:00,62.8,51.3,29.94,North,0,0.0,0.0,67,0.00,,,0.00,WUHU21623XXSP,2013-09-21 16:35:00,
2013-09-21 09:40:00,63.0,51.8,29.95,North,0,0.0,0.0,67,0.00,,,0.00,WUHU21623XXSP,2013-09-21 16:40:00,
2013-09-21 09:45:00,63.3,51.3,29.94,North,0,0.0,0.0,65,0.00,,,0.00,WUHU21623XXSP,2013-09-21 16:45:00,
2013-09-21 09:50:00,63.1,51.1,29.95,North,0,0.0,0.0,65,0.00,,,0.00,WUHU21623XXSP,2013-09-21 16:50:00,
2013-09-21 09:55:00,64.6,52.5,29.95,North,0,0.0,0.0,65,0.00,,,0.00,WUHU21623XXSP,2013-09-21 16:55:00,
2013-09-21 10:00:00,65.5,51.7,29.95,North,0,0.0,0.0,61,0.00,,,0.00,WUHU21623XXSP,2013-09-21 17:00:00,
2013-09-21 10:05:00,66.4,52.1,29.95,North,0,0.0,0.0,60,0.00,,,0.00,WUHU21623XXSP,2013-09-21 17:05:00,
2013-09-21 10:10:00,68.4,53.3,29.95,North,0,0.0,0.0,58,0.00,,,0.00,WUHU21623XXSP,2013-09-21 17:10:00,
2013-09-21 10:15:00,68.4,53.0,29.95,North,0,0.0,0.0,58,0.00,,,0.00,WUHU21623XXSP,2013-09-21 17:15:00,
2013-09-21 10:20:00,68.4,53.0,29.95,North,0,0.0,0.0,58,0.00,,,0.00,WUHU21623XXSP,2013-09-21 17:20:00,
2013-09-21 10:25:00,70.2,51.7,29.95,North,0,0.0,0.0,52,0.00,,,0.00,WUHU21623XXSP,2013-09-21 17:25:00,
2013-09-21 10:30:00,70.2,52.7,29.95,North,0,0.0,0.0,54,0.00,,,0.00,WUHU21623XXSP,2013-09-21 17:30:00,
2013-09-21 10:36:00,70.9,52.3,29.95,North,0,0.0,0.0,52,0.00,,,0.00,WUHU21623XXSP,2013-09-21 17:36:00,
2013-09-21 10:41:00,71.2,53.2,29.95,North,0,0.0,0.0,53,0.00,,,0.00,WUHU21623XXSP,2013-09-21 17:41:00,
2013-09-21 10:46:00,72.0,53.3,29.95,North,0,0.0,0.0,52,0.00,,,0.00,WUHU21623XXSP,2013-09-21 17:46:00,
2013-09-21 10:51:00,72.1,53.0,29.95,North,0,0.0,0.0,51,0.00,,,0.00,WUHU21623XXSP,2013-09-21 17:51:00,
2013-09-21 10:56:00,73.2,52.8,29.96,North,0,0.0,0.0,49,0.00,,,0.00,WUHU21623XXSP,2013-09-21 17:56:00,
2013-09-21 11:01:00,72.5,52.8,29.95,North,0,0.0,0.0,50,0.00,,,0.00,WUHU21623XXSP,2013-09-21 18:01:00,
2013-09-21 11:06:00,72.7,53.5,29.95,North,0,0.0,0.0,51,0.00,,,0.00,WUHU21623XXSP,2013-09-21 18:06:00,
2013-09-21 11:11:00,73.2,53.4,29.95,North,0,0.0,0.0,50,0.00,,,0.00,WUHU21623XXSP,2013-09-21 18:11:00,
2013-09-21 11:16:00,73.8,52.8,29.95,North,0,0.0,0.0,48,0.00,,,0.00,WUHU21623XXSP,2013-09-21 18:16:00,
2013-09-21 11:21:00,73.8,52.8,29.95,North,0,0.0,0.0,48,0.00,,,0.00,WUHU21623XXSP,2013-09-21 18:21:00,
2013-09-21 11:26:00,73.8,53.3,29.95,North,0,0.0,0.0,49,0.00,,,0.00,WUHU21623XXSP,2013-09-21 18:26:00,
2013-09-21 11:31:00,74.1,53.7,29.95,North,0,0.0,0.0,49,0.00,,,0.00,WUHU21623XXSP,2013-09-21 18:31:00,
2013-09-21 11:36:00,74.5,54.1,29.95,North,0,0.0,0.0,49,0.00,,,0.00,WUHU21623XXSP,2013-09-21 18:36:00,
2013-09-21 11:41:00,74.5,53.5,29.95,North,0,0.0,0.0,48,0.00,,,0.00,WUHU21623XXSP,2013-09-21 18:41:00,
2013-09-21 11:46:00,75.2,54.2,29.95,North,0,0.0,0.0,48,0.00,,,0.00,WUHU21623XXSP,2013-09-21 18:46:00,
2013-09-21 11:51:00,74.8,53.8,29.95,North,0,0.0,0.0,48,0.00,,,0.00,WUHU21623XXSP,2013-09-21 18:51:00,
2013-09-21 11:56:00,75.0,54.6,29.94,North,0,0.0,0.0,49,0.00,,,0.00,WUHU21623XXSP,2013-09-21 18:56:00,
2013-09-21 12:01:00,75.6,54.5,29.94,North,0,0.0,0.0,48,0.00,,,0.00,WUHU21623XXSP,2013-09-21 19:01:00,
2013-09-21 12:06:00,75.2,54.2,29.94,North,0,0.0,0.0,48,0.00,,,0.00,WUHU21623XXSP,2013-09-21 19:06:00,
2013-09-21 12:11:00,75.2,54.2,29.94,North,0,0.0,0.0,48,0.00,,,0.00,WUHU21623XXSP,2013-09-21 19:11:00,
2013-09-21 12:16:00,75.0,54.3,29.94,North,0,0.0,0.0,48,0.00,,,0.00,WUHU21623XXSP,2013-09-21 19:16:00,
2013-09-21 12:21:00,76.1,54.4,29.94,North,0,0.0,0.0,47,0.00,,,0.00,WUHU21623XXSP,2013-09-21 19:21:00,
2013-09-21 12:26:00,75.4,54.5,29.94,North,0,0.0,0.0,47,0.00,,,0.00,WUHU21623XXSP,2013-09-21 19:26:00,
2013-09-21 12:31:00,75.6,53.9,29.94,North,0,0.0,0.0,47,0.00,,,0.00,WUHU21623XXSP,2013-09-21 19:31:00,
2013-09-21 12:36:00,76.3,54.5,29.94,North,0,0.0,0.0,47,0.00,,,0.00,WUHU21623XXSP,2013-09-21 19:36:00,
2013-09-21 12:41:00,76.3,54.5,29.94,North,0,0.0,0.0,47,0.00,,,0.00,WUHU21623XXSP,2013-09-21 19:41:00,
2013-09-21 12:46:00,76.8,54.4,29.94,North,0,0.0,0.0,46,0.00,,,0.00,WUHU21623XXSP,2013-09-21 19:46:00,
2013-09-21 12:51:00,76.8,54.4,29.94,North,0,0.0,0.0,46,0.00,,,0.00,WUHU21623XXSP,2013-09-21 19:51:00,
2013-09-21 12:56:00,76.5,54.7,29.94,North,0,0.0,0.0,47,0.00,,,0.00,WUHU21623XXSP,2013-09-21 19:56:00,
2013-09-21 13:01:00,76.8,55.0,29.94,North,0,0.0,0.0,47,0.00,,,0.00,WUHU21623XXSP,2013-09-21 20:01:00,
2013-09-21 13:06:00,77.0,55.2,29.94,North,0,0.0,0.0,47,0.00,,,0.00,WUHU21623XXSP,2013-09-21 20:06:00,
2013-09-21 13:11:00,76.6,54.9,29.93,North,0,0.0,0.0,47,0.00,,,0.00,WUHU21623XXSP,2013-09-21 20:11:00,
2013-09-21 13:16:00,76.6,54.9,29.94,North,0,0.0,0.0,47,0.00,,,0.00,WUHU21623XXSP,2013-09-21 20:16:00,
2013-09-21 13:21:00,76.6,54.9,29.93,North,0,0.0,0.0,47,0.00,,,0.00,WUHU21623XXSP,2013-09-21 20:21:00,
2013-09-21 13:26:00,77.0,54.6,29.93,North,0,0.0,0.0,46,0.00,,,0.00,WUHU21623XXSP,2013-09-21 20:26:00,
2013-09-21 13:31:00,76.8,53.8,29.93,North,0,0.0,0.0,45,0.00,,,0.00,WUHU21623XXSP,2013-09-21 20:31:00,
2013-09-21 13:36:00,76.5,54.1,29.93,North,0,0.0,0.0,46,0.00,,,0.00,WUHU21623XXSP,2013-09-21 20:36:00,
2013-09-21 13:41:00,77.5,54.4,29.92,North,0,0.0,0.0,45,0.00,,,0.00,WUHU21623XXSP,2013-09-21 20:41:00,
2013-09-21 13:46:00,78.3,54.5,29.92,North,0,0.0,0.0,44,0.00,,,0.00,WUHU21623XXSP,2013-09-21 20:46:00,
2013-09-21 13:51:00,78.1,53.7,29.92,North,0,0.0,0.0,43,0.00,,,0.00,WUHU21623XXSP,2013-09-21 20:51:00,
2013-09-21 13:56:00,77.7,53.4,29.91,North,0,0.0,0.0,43,0.00,,,0.00,WUHU21623XXSP,2013-09-21 20:56:00,
2013-09-21 14:01:00,78.3,53.3,29.91,North,0,0.0,0.0,42,0.00,,,0.00,WUHU21623XXSP,2013-09-21 21:01:00,
2013-09-21 14:06:00,78.4,52.8,29.91,North,0,0.0,0.0,41,0.00,,,0.00,WUHU21623XXSP,2013-09-21 21:06:00,
2013-09-21 14:11:00,78.6,53.0,29.91,North,0,0.0,0.0,41,0.00,,,0.00,WUHU21623XXSP,2013-09-21 21:11:00,
2013-09-21 14:16:00,78.4,52.2,29.90,North,0,0.0,0.0,40,0.00,,,0.00,WUHU21623XXSP,2013-09-21 21:16:00,
2013-09-21 14:21:00,78.4,52.2,29.90,North,0,0.0,0.0,40,0.00,,,0.00,WUHU21623XXSP,2013-09-21 21:21:00,
2013-09-21 14:26:00,78.3,52.0,29.90,North,0,0.0,0.0,40,0.00,,,0.00,WUHU21623XXSP,2013-09-21 21:26:00,
2013-09-21 14:31:00,78.6,50.8,29.89,North,0,0.0,0.0,38,0.00,,,0.00,WUHU21623XXSP,2013-09-21 21:31:00,
2013-09-21 14:36:00,78.6,51.6,29.90,North,0,0.0,0.0,39,0.00,,,0.00,WUHU21623XXSP,2013-09-21 21:36:00,
2013-09-21 14:41:00,78.4,51.4,29.90,North,0,0.0,0.0,39,0.00,,,0.00,WUHU21623XXSP,2013-09-21 21:41:00,
2013-09-21 14:46:00,77.5,51.4,29.90,North,0,0.0,0.0,40,0.00,,,0.00,WUHU21623XXSP,2013-09-21 21:46:00,
2013-09-21 14:51:00,77.9,52.3,29.89,North,0,0.0,0.0,41,0.00,,,0.00,WUHU21623XXSP,2013-09-21 21:51:00,
2013-09-21 14:56:00,78.6,53.0,29.89,North,0,0.0,0.0,41,0.00,,,0.00,WUHU21623XXSP,2013-09-21 21:56:00,
2013-09-21 15:01:00,78.4,52.8,29.89,North,0,0.0,0.0,41,0.00,,,0.00,WUHU21623XXSP,2013-09-21 22:01:00,
2013-09-21 15:06:00,78.6,52.4,29.89,North,0,0.0,0.0,40,0.00,,,0.00,WUHU21623XXSP,2013-09-21 22:06:00,
2013-09-21 15:11:00,79.0,52.7,29.89,North,0,0.0,0.0,40,0.00,,,0.00,WUHU21623XXSP,2013-09-21 22:11:00,
2013-09-21 15:16:00,78.4,52.2,29.88,North,0,0.0,0.0,42,0.00,,,0.00,WUHU21623XXSP,2013-09-21 22:16:00,
2013-09-21 15:21:00,78.6,52.8,29.88,North,0,0.0,0.0,41,0.00,,,0.00,WUHU21623XXSP,2013-09-21 22:21:00,
2013-09-21 15:26:00,78.6,53.6,29.88,North,0,0.0,0.0,42,0.00,,,0.00,WUHU21623XXSP,2013-09-21 22:26:00,
2013-09-21 15:31:00,78.4,53.4,29.88,North,0,0.0,0.0,42,0.00,,,0.00,WUHU21623XXSP,2013-09-21 22:31:00,
2013-09-21 15:36:00,78.1,53.1,29.88,North,0,0.0,0.0,42,0.00,,,0.00,WUHU21623XXSP,2013-09-21 22:36:00,
2013-09-21 15:41:00,77.7,53.4,29.88,North,0,0.0,0.0,43,0.00,,,0.00,WUHU21623XXSP,2013-09-21 22:41:00,
2013-09-21 15:46:00,78.1,53.7,29.88,North,0,0.0,0.0,43,0.00,,,0.00,WUHU21623XXSP,2013-09-21 22:46:00,
2013-09-21 15:51:00,77.7,53.4,29.88,North,0,0.0,0.0,43,0.00,,,0.00,WUHU21623XXSP,2013-09-21 22:51:00,
2013-09-21 15:56:00,77.7,53.4,29.87,North,0,0.0,0.0,43,0.00,,,0.00,WUHU21623XXSP,2013-09-21 22:56:00,
2013-09-21 16:01:00,77.4,53.7,29.88,North,0,0.0,0.0,44,0.00,,,0.00,WUHU21623XXSP,2013-09-21 23:01:00,
2013-09-21 16:06:00,77.7,53.4,29.87,North,0,0.0,0.0,43,0.00,,,0.00,WUHU21623XXSP,2013-09-21 23:06:00,
2013-09-21 16:11:00,77.9,52.9,29.88,North,0,0.0,0.0,42,0.00,,,0.00,WUHU21623XXSP,2013-09-21 23:11:00,
2013-09-21 16:16:00,77.7,51.5,29.87,North,0,0.0,0.0,40,0.00,,,0.00,WUHU21623XXSP,2013-09-21 23:16:00,
2013-09-21 16:21:00,78.1,51.1,29.87,North,0,0.0,0.0,39,0.00,,,0.00,WUHU21623XXSP,2013-09-21 23:21:00,
2013-09-21 16:26:00,77.9,50.2,29.86,North,0,0.0,0.0,38,0.00,,,0.00,WUHU21623XXSP,2013-09-21 23:26:00,
2013-09-21 16:31:00,78.6,50.0,29.86,North,0,0.0,0.0,37,0.00,,,0.00,WUHU21623XXSP,2013-09-21 23:31:00,
2013-09-21 16:36:00,77.9,50.2,29.86,North,0,0.0,0.0,38,0.00,,,0.00,WUHU21623XXSP,2013-09-21 23:36:00,
2013-09-21 16:41:00,77.7,50.0,29.86,North,0,0.0,0.0,38,0.00,,,0.00,WUHU21623XXSP,2013-09-21 23:41:00,
2013-09-21 16:46:00,77.5,51.4,29.86,North,0,0.0,0.0,40,0.00,,,0.00,WUHU21623XXSP,2013-09-21 23:46:00,
2013-09-21 16:51:00,77.0,51.5,29.86,North,0,0.0,0.0,41,0.00,,,0.00,WUHU21623XXSP,2013-09-21 23:51:00,
2013-09-21 16:56:00,76.8,52.0,29.86,North,0,0.0,0.0,42,0.00,,,0.00,WUHU21623XXSP,2013-09-21 23:56:00,
2013-09-21 17:01:00,76.6,51.2,29.86,North,0,0.0,0.0,41,0.00,,,0.00,WUHU21623XXSP,2013-09-22 00:01:00,
2013-09-21 17:06:00,76.3,51.5,29.86,North,0,0.0,0.0,42,0.00,,,0.00,WUHU21623XXSP,2013-09-22 00:06:00,
2013-09-21 17:11:00,76.1,51.3,29.86,North,0,0.0,0.0,42,0.00,,,0.00,WUHU21623XXSP,2013-09-22 00:11:00,
2013-09-21 17:16:00,75.7,51.0,29.86,North,0,0.0,0.0,42,0.00,,,0.00,WUHU21623XXSP,2013-09-22 00:16:00,
2013-09-21 17:21:00,75.6,51.4,29.86,North,0,0.0,0.0,43,0.00,,,0.00,WUHU21623XXSP,2013-09-22 00:21:00,
2013-09-21 17:26:00,75.0,50.9,29.86,North,0,0.0,0.0,43,0.00,,,0.00,WUHU21623XXSP,2013-09-22 00:26:00,
2013-09-21 17:31:00,74.8,51.4,29.86,North,0,0.0,0.0,44,0.00,,,0.00,WUHU21623XXSP,2013-09-22 00:31:00,
2013-09-21 17:36:00,74.8,51.4,29.86,North,0,0.0,0.0,44,0.00,,,0.00,WUHU21623XXSP,2013-09-22 00:36:00,
2013-09-21 17:41:00,73.9,50.5,29.86,North,0,0.0,0.0,44,0.00,,,0.00,WUHU21623XXSP,2013-09-22 00:41:00,
2013-09-21 17:46:00,73.2,50.5,29.86,North,0,0.0,0.0,45,0.00,,,0.00,WUHU21623XXSP,2013-09-22 00:46:00,
2013-09-21 17:51:00,72.7,50.6,29.86,North,0,0.0,0.0,46,0.00,,,0.00,WUHU21623XXSP,2013-09-22 00:51:00,
2013-09-21 17:56:00,72.3,50.8,29.86,North,0,0.0,0.0,47,0.00,,,0.00,WUHU21623XXSP,2013-09-22 00:56:00,
2013-09-21 18:01:00,72.1,50.7,29.86,North,0,0.0,0.0,47,0.00,,,0.00,WUHU21623XXSP,2013-09-22 01:01:00,
2013-09-21 18:06:00,71.6,50.2,29.86,North,0,0.0,0.0,47,0.00,,,0.00,WUHU21623XXSP,2013-09-22 01:06:00,
2013-09-21 18:11:00,71.2,51.1,29.87,North,0,0.0,0.0,49,0.00,,,0.00,WUHU21623XXSP,2013-09-22 01:11:00,
2013-09-21 18:16:00,70.7,51.7,29.86,North,0,0.0,0.0,51,0.00,,,0.00,WUHU21623XXSP,2013-09-22 01:16:00,
2013-09-21 18:21:00,70.0,52.0,29.86,North,0,0.0,0.0,53,0.00,,,0.00,WUHU21623XXSP,2013-09-22 01:21:00,
2013-09-21 18:26:00,69.4,52.5,29.87,North,0,0.0,0.0,55,0.00,,,0.00,WUHU21623XXSP,2013-09-22 01:26:00,
2013-09-21 18:31:00,68.7,51.9,29.87,North,0,0.0,0.0,55,0.00,,,0.00,WUHU21623XXSP,2013-09-22 01:31:00,
2013-09-21 18:36:00,67.8,51.5,29.87,North,0,0.0,0.0,56,0.00,,,0.00,WUHU21623XXSP,2013-09-22 01:36:00,
2013-09-21 18:41:00,67.3,51.5,29.87,North,0,0.0,0.0,57,0.00,,,0.00,WUHU21623XXSP,2013-09-22 01:41:00,
2013-09-21 18:46:00,66.9,51.7,29.87,North,0,0.0,0.0,58,0.00,,,0.00,WUHU21623XXSP,2013-09-22 01:46:00,
2013-09-21 18:51:00,66.0,51.3,29.87,North,0,0.0,0.0,59,0.00,,,0.00,WUHU21623XXSP,2013-09-22 01:51:00,
2013-09-21 18:56:00,65.7,51.4,29.87,North,0,0.0,0.0,60,0.00,,,0.00,WUHU21623XXSP,2013-09-22 01:56:00,
2013-09-21 19:01:00,65.1,50.9,29.87,North,0,0.0,0.0,60,0.00,,,0.00,WUHU21623XXSP,2013-09-22 02:01:00,
2013-09-21 19:06:00,64.8,51.0,29.87,North,0,0.0,0.0,61,0.00,,,0.00,WUHU21623XXSP,2013-09-22 02:06:00,
2013-09-21 19:11:00,64.2,50.4,29.87,North,0,0.0,0.0,61,0.00,,,0.00,WUHU21623XXSP,2013-09-22 02:11:00,
2013-09-21 19:16:00,64.0,50.7,29.88,North,0,0.0,0.0,62,0.00,,,0.00,WUHU21623XXSP,2013-09-22 02:16:00,
2013-09-21 19:21:00,63.7,50.8,29.88,North,0,0.0,0.0,63,0.00,,,0.00,WUHU21623XXSP,2013-09-22 02:21:00,
2013-09-21 19:26:00,63.3,50.9,29.88,North,0,0.0,0.0,64,0.00,,,0.00,WUHU21623XXSP,2013-09-22 02:26:00,
2013-09-21 19:31:00,63.1,50.7,29.88,North,0,0.0,0.0,64,0.00,,,0.00,WUHU21623XXSP,2013-09-22 02:31:00,
2013-09-21 19:36:00,62.8,50.8,29.87,North,0,0.0,0.0,65,0.00,,,0.00,WUHU21623XXSP,2013-09-22 02:36:00,
2013-09-21 19:41:00,62.4,50.5,29.88,North,0,0.0,0.0,65,0.00,,,0.00,WUHU21623XXSP,2013-09-22 02:41:00,
2013-09-21 19:46:00,62.1,50.6,29.88,North,0,0.0,0.0,66,0.00,,,0.00,WUHU21623XXSP,2013-09-22 02:46:00,
2013-09-21 19:51:00,61.9,50.4,29.88,North,0,0.0,0.0,66,0.00,,,0.00,WUHU21623XXSP,2013-09-22 02:51:00,
2013-09-21 19:56:00,61.5,50.5,29.88,North,0,0.0,0.0,67,0.00,,,0.00,WUHU21623XXSP,2013-09-22 02:56:00,
2013-09-21 20:02:00,61.3,50.3,29.88,North,0,0.0,0.0,67,0.00,,,0.00,WUHU21623XXSP,2013-09-22 03:02:00,
2013-09-21 20:07:00,61.3,50.7,29.88,North,0,0.0,0.0,68,0.00,,,0.00,WUHU21623XXSP,2013-09-22 03:07:00,
2013-09-21 20:12:00,61.2,50.6,29.88,North,0,0.0,0.0,68,0.00,,,0.00,WUHU21623XXSP,2013-09-22 03:12:00,
2013-09-21 20:17:00,60.8,50.3,29.89,North,0,0.0,0.0,68,0.00,,,0.00,WUHU21623XXSP,2013-09-22 03:17:00,
2013-09-21 20:22:00,60.6,50.1,29.89,North,0,0.0,0.0,68,0.00,,,0.00,WUHU21623XXSP,2013-09-22 03:22:00,
2013-09-21 20:27:00,60.6,50.5,29.89,North,0,0.0,0.0,69,0.00,,,0.00,WUHU21623XXSP,2013-09-22 03:27:00,
2013-09-21 20:32:00,60.4,50.3,29.89,North,0,0.0,0.0,69,0.00,,,0.00,WUHU21623XXSP,2013-09-22 03:32:00,
2013-09-21 20:37:00,60.4,50.7,29.89,North,0,0.0,0.0,70,0.00,,,0.00,WUHU21623XXSP,2013-09-22 03:37:00,
2013-09-21 20:42:00,60.1,50.4,29.89,North,0,0.0,0.0,70,0.00,,,0.00,WUHU21623XXSP,2013-09-22 03:42:00,
2013-09-21 20:47:00,59.9,50.2,29.89,North,0,0.0,0.0,70,0.00,,,0.00,WUHU21623XXSP,2013-09-22 03:47:00,
2013-09-21 20:52:00,59.7,50.0,29.89,North,0,0.0,0.0,70,0.00,,,0.00,WUHU21623XXSP,2013-09-22 03:52:00,
2013-09-21 20:57:00,59.7,50.4,29.89,North,0,0.0,0.0,71,0.00,,,0.00,WUHU21623XXSP,2013-09-22 03:57:00,
2013-09-21 21:02:00,59.7,50.4,29.89,North,0,0.0,0.0,71,0.00,,,0.00,WUHU21623XXSP,2013-09-22 04:02:00,
2013-09-21 21:07:00,59.5,50.2,29.90,North,0,0.0,0.0,71,0.00,,,0.00,WUHU21623XXSP,2013-09-22 04:07:00,
2013-09-21 21:12:00,59.4,50.0,29.89,North,0,0.0,0.0,71,0.00,,,0.00,WUHU21623XXSP,2013-09-22 04:12:00,
2013-09-21 21:17:00,59.4,50.0,29.89,North,0,0.0,0.0,71,0.00,,,0.00,WUHU21623XXSP,2013-09-22 04:17:00,
2013-09-21 21:22:00,59.4,50.0,29.90,North,0,0.0,0.0,71,0.00,,,0.00,WUHU21623XXSP,2013-09-22 04:22:00,
2013-09-21 21:27:00,59.4,50.0,29.90,North,0,0.0,0.0,71,0.00,,,0.00,WUHU21623XXSP,2013-09-22 04:27:00,
2013-09-21 21:32:00,59.7,50.4,29.90,North,0,0.0,0.0,71,0.00,,,0.00,WUHU21623XXSP,2013-09-22 04:32:00,
2013-09-21 21:37:00,59.9,50.5,29.90,North,0,0.0,0.0,71,0.00,,,0.00,WUHU21623XXSP,2013-09-22 04:37:00,
2013-09-21 21:42:00,60.1,50.7,29.90,North,0,0.0,0.0,71,0.00,,,0.00,WUHU21623XXSP,2013-09-22 04:42:00,
2013-09-21 21:47:00,60.1,50.4,29.90,North,0,0.0,0.0,70,0.00,,,0.00,WUHU21623XXSP,2013-09-22 04:47:00,
2013-09-21 21:52:00,60.1,50.4,29.90,North,0,0.0,0.0,70,0.00,,,0.00,WUHU21623XXSP,2013-09-22 04:52:00,
2013-09-21 21:57:00,59.9,50.2,29.90,North,0,0.0,0.0,70,0.00,,,0.00,WUHU21623XXSP,2013-09-22 04:57:00,
2013-09-21 22:02:00,59.7,50.4,29.91,North,0,0.0,0.0,71,0.00,,,0.00,WUHU21623XXSP,2013-09-22 05:02:00,
2013-09-21 22:07:00,59.9,50.5,29.90,North,0,0.0,0.0,71,0.00,,,0.00,WUHU21623XXSP,2013-09-22 05:07:00,
2013-09-21 22:12:00,59.9,50.5,29.90,North,0,0.0,0.0,71,0.00,,,0.00,WUHU21623XXSP,2013-09-22 05:12:00,
2013-09-21 22:17:00,59.7,50.4,29.90,North,0,0.0,0.0,71,0.00,,,0.00,WUHU21623XXSP,2013-09-22 05:17:00,
2013-09-21 22:22:00,59.7,50.4,29.90,North,0,0.0,0.0,71,0.00,,,0.00,WUHU21623XXSP,2013-09-22 05:22:00,
2013-09-21 22:27:00,59.7,50.4,29.90,North,0,0.0,0.0,71,0.00,,,0.00,WUHU21623XXSP,2013-09-22 05:27:00,
2013-09-21 22:32:00,59.5,50.2,29.90,North,0,0.0,0.0,71,0.00,,,0.00,WUHU21623XXSP,2013-09-22 05:32:00,
2013-09-21 22:37:00,59.2,50.2,29.90,North,0,0.0,0.0,72,0.00,,,0.00,WUHU21623XXSP,2013-09-22 05:37:00,
2013-09-21 22:42:00,58.8,49.8,29.91,North,0,0.0,0.0,72,0.00,,,0.00,WUHU21623XXSP,2013-09-22 05:42:00,
2013-09-21 22:47:00,59.0,50.0,29.90,North,0,0.0,0.0,72,0.00,,,0.00,WUHU21623XXSP,2013-09-22 05:47:00,
2013-09-21 22:52:00,59.0,50.0,29.90,North,0,0.0,0.0,72,0.00,,,0.00,WUHU21623XXSP,2013-09-22 05:52:00,
2013-09-21 22:57:00,59.2,50.2,29.91,North,0,0.0,0.0,72,0.00,,,0.00,WUHU21623XXSP,2013-09-22 05:57:00,
2013-09-21 23:02:00,59.2,50.5,29.89,North,0,0.0,0.0,73,0.00,,,0.00,WUHU21623XXSP,2013-09-22 06:02:00,
2013-09-21 23:07:00,59.2,50.5,29.90,North,0,0.0,0.0,73,0.00,,,0.00,WUHU21623XXSP,2013-09-22 06:07:00,
2013-09-21 23:12:00,59.2,50.5,29.90,North,0,0.0,0.0,73,0.00,,,0.00,WUHU21623XXSP,2013-09-22 06:12:00,
2013-09-21 23:17:00,59.2,50.5,29.90,North,0,0.0,0.0,73,0.00,,,0.00,WUHU21623XXSP,2013-09-22 06:17:00,
2013-09-21 23:22:00,59.2,50.5,29.90,North,0,0.0,0.0,73,0.00,,,0.00,WUHU21623XXSP,2013-09-22 06:22:00,
2013-09-21 23:27:00,59.2,50.5,29.90,North,0,0.0,0.0,73,0.00,,,0.00,WUHU21623XXSP,2013-09-22 06:27:00,
2013-09-21 23:32:00,59.0,50.7,29.90,North,0,0.0,0.0,74,0.00,,,0.00,WUHU21623XXSP,2013-09-22 06:32:00,
2013-09-21 23:37:00,59.0,50.7,29.89,North,0,0.0,0.0,74,0.00,,,0.00,WUHU21623XXSP,2013-09-22 06:37:00,
2013-09-21 23:42:00,59.2,50.9,29.90,North,0,0.0,0.0,74,0.00,,,0.00,WUHU21623XXSP,2013-09-22 06:42:00,
2013-09-21 23:47:00,59.2,50.9,29.90,North,0,0.0,0.0,74,0.00,,,0.00,WUHU21623XXSP,2013-09-22 06:47:00,
2013-09-21 23:52:00,59.0,50.7,29.89,North,0,0.0,0.0,74,0.00,,,0.00,WUHU21623XXSP,2013-09-22 06:52:00,
2013-09-21 23:57:00,59.0,50.7,29.89,North,0,0.0,0.0,74,0.00,,,0.00,WUHU21623XXSP,2013-09-22 06:57:00,